Location: Newark
(52.9300°N, 3.3400°W)
Time: 11:45:21
(UTC+00:00)

ISS - Pass Details

Date: 09 March 2021
Orbit: 418 x 422 km, 51.6° (Epoch: 17 April)

Event Time Altitude Azimuth Distance (km) Brightness Sun altitude
Exits shadow 05:30:36 18° 245° (WSW) 1,104 -2.2 -11.5°
Maximum altitude 05:31:55 23° 212° (SSW) 948 -2.3 -11.3°
Drops below altitude 10° 05:34:37 10° 158° (SSE) 1,495 -0.8 -10.9°
Sets 05:36:59 0° 143° (SE) 2,355 0.5 -10.6°
